Weather History for Bishop, CA

Change the Weather History Date:

Friday, June 7, 2013

  Actual Average Record
Temperature  
Mean Temperature 80 °F 69 °F  
Max Temperature 103 °F 89 °F 103 °F (2013)
Min Temperature 56 °F 49 °F 29 °F (1988)
Degree Days  
Heating Degree Days 0 1  
Month to date heating degree days 0 10  
Since 1 June heating degree days 0 10  
Since 1 July heating degree days 3851 4168  
Cooling Degree Days 15 5  
Month to date cooling degree days 82 34  
Year to date cooling degree days 168 102  
Since 1 June cooling degree days 82 34  
Growing Degree Days 28 (Base 50)    
Moisture  
Dew Point 27 °F    
Average Humidity 23    
Maximum Humidity 40    
Minimum Humidity 5    
Precipitation  
Precipitation 0.00 in 0.01 in 0.24 in (1972)
Month to date precipitation T 0.05  
Year to date precipitation 0.47 2.93  
Snow  
Snow 0.00 in 0.00 in - ()
Month to date snowfall 0.0 0.0  
Since 1 June snowfall 0.0 0.0  
Since 1 July snowfall 2.8 6.8  
Snow Depth 0.00 in    
Sea Level Pressure  
Sea Level Pressure 29.79 in    
Wind  
Wind Speed 5 mph (WNW)    
Max Wind Speed 12 mph    
Max Gust Speed 23 mph    
Visibility 10 miles    
Events      
T = Trace of Precipitation, MM = Missing Value Source: NWS Daily Summary

Daily Weather History Graph

Daily Weather History Graph

Search for Another Location

Airport:

Trip Planner

Search our weather history database for the weather conditions in past years. The results will help you decide how hot, cold, wet, or windy it might be!

Date:

Astronomy

Jun. 07, 2013 Rise Set
Actual Time 5:32 AM PDT 8:12 PM PDT
Civil Twilight 5:01 AM PDT 8:43 PM PDT
Nautical Twilight 4:23 AM PDT 9:21 PM PDT
Astronomical Twilight 3:40 AM PDT 10:04 PM PDT
Moon 4:57 AM PDT (6/7) 7:31 PM PDT (6/7)
Length of Visible Light 15h 41m
Length of Day
14h 39m
Waning Crescent, 1% of the Moon is Illuminated
Jun 7
Waning Crescent
Jun 8
New
Jun 16
First Quarter
Jun 23
Full
Jun 29
Last Quarter

Hourly Weather History & Observations

Time (PDT) Temp. Dew Point Humidity Pressure Visibility Wind Dir Wind Speed Gust Speed Precip Events Conditions
12:56 AM 75.9 °F 30.9 °F 19% 29.80 in 10.0 mi NNW 6.9 mph - N/A   Clear
1:56 AM 71.1 °F 30.0 °F 22% 29.81 in 10.0 mi WNW 3.5 mph - N/A   Clear
2:56 AM 64.9 °F 30.9 °F 28% 29.82 in 10.0 mi WNW 4.6 mph - N/A   Clear
3:56 AM 59.0 °F 32.0 °F 36% 29.84 in 10.0 mi NNE 5.8 mph - N/A   Clear
4:56 AM 61.0 °F 32.0 °F 34% 29.85 in 10.0 mi NW 8.1 mph - N/A   Clear
5:56 AM 57.0 °F 33.1 °F 40% 29.87 in 10.0 mi NW 3.5 mph - N/A   Clear
6:56 AM 66.9 °F 34.0 °F 30% 29.87 in 10.0 mi North 4.6 mph - N/A   Clear
7:56 AM 79.0 °F 35.1 °F 20% 29.87 in 10.0 mi WNW 5.8 mph - N/A   Clear
8:56 AM 87.1 °F 33.1 °F 15% 29.86 in 10.0 mi NW 3.5 mph - N/A   Clear
9:56 AM 91.0 °F 30.0 °F 11% 29.86 in 10.0 mi Variable 3.5 mph - N/A   Clear
10:56 AM 91.0 °F 28.9 °F 11% 29.84 in 10.0 mi Variable 3.5 mph - N/A   Clear
11:56 AM 95.0 °F 27.0 °F 9% 29.83 in 10.0 mi Variable 3.5 mph - N/A   Clear
12:56 PM 98.1 °F 19.9 °F 6% 29.80 in 10.0 mi Variable 4.6 mph - N/A   Clear
1:56 PM 99.0 °F 19.0 °F 6% 29.78 in 10.0 mi West 6.9 mph - N/A   Clear
2:56 PM 98.1 °F 21.0 °F 6% 29.77 in 10.0 mi Calm Calm - N/A   Clear
3:56 PM 102.0 °F 19.0 °F 5% 29.75 in 10.0 mi West 8.1 mph - N/A   Clear
4:56 PM 99.0 °F 19.0 °F 6% 29.73 in 10.0 mi WSW 8.1 mph - N/A   Clear
5:56 PM 99.0 °F 18.0 °F 5% 29.72 in 10.0 mi SSE 5.8 mph - N/A   Clear
6:56 PM 98.1 °F 19.0 °F 6% 29.70 in 10.0 mi West 8.1 mph - N/A   Clear
7:56 PM 91.9 °F 26.1 °F 9% 29.69 in 10.0 mi South 3.5 mph - N/A   Clear
8:56 PM 82.0 °F 30.0 °F 15% 29.71 in 10.0 mi East 3.5 mph - N/A   Clear
9:56 PM 80.1 °F 30.9 °F 17% 29.73 in 10.0 mi SW 6.9 mph - N/A   Clear
10:56 PM 79.0 °F 27.0 °F 15% 29.75 in 10.0 mi West 9.2 mph - N/A   Clear
11:56 PM 73.0 °F 28.0 °F 19% 29.76 in 10.0 mi East 3.5 mph - N/A   Clear